Location: ??????
(56.0120°N, 39.1740°E)
Time: 10:47:41
(UTC+00:00)

Cosmos 1125 Rocket - Pass Details

Date: 14 April 2026
Orbit: 752 x 776 km, 74.0° (Epoch: 19 May)

Event Time Altitude Azimuth Distance (km) Brightness Sun altitude
Exits shadow 18:55:02 12° 197° (SSW) 2,149 5.5 -17.5°
Maximum altitude 18:59:51 73° 114° (ESE) 807 3.4 -17.9°
Drops below altitude 10° 19:05:06 10° 31° (NNE) 2,324 6.3 -18.4°
Sets 19:07:30 0° 30° (NNE) 3,258 7.1 -18.6°
